Mitchell, SD

4:00 PM CST on November 11, 2019 (GMT -0600)
Mitchell Municipal

Weather History for KMHE - June, 2019

Change the Weather History Date:

Thursday, June 13, 2019

  Actual Average Record
Temperature  
Mean Temperature 66 °F 69 °F  
Max Temperature 83 °F 80 °F 106 °F (1956)
Min Temperature 49 °F 58 °F 38 °F (1942)
Degree Days  
Heating Degree Days 0 1  
Month to date heating degree days 9 25  
Since 1 June heating degree days 9 25  
Since 1 July heating degree days 7988 7235  
Cooling Degree Days 1 5  
Month to date cooling degree days 57 46  
Year to date cooling degree days 76 86  
Since 1 June cooling degree days 57 46  
Growing Degree Days 16 (Base 50)    
Moisture  
Dew Point 50 °F    
Average Humidity 62    
Maximum Humidity 93    
Minimum Humidity 31    
Precipitation  
Precipitation T in 0.16 in 1.10 in (1939)
Month to date precipitation 0.13 2.00  
Year to date precipitation 11.97 8.73  
Snow  
Snow 0.00 in - 0.00 in ()
Month to date snowfall 0.0  
Since 1 June snowfall 0.0  
Since 1 July snowfall 67.6  
Snow Depth 0.00 in    
Sea Level Pressure  
Sea Level Pressure 29.94 in    
Wind  
Wind Speed 10 mph (SSE)    
Max Wind Speed 18 mph    
Max Gust Speed 27 mph    
Visibility 10 miles    
Events Rain    
T = Trace of Precipitation, MM = Missing Value Source: NWS Daily Summary

Daily Weather History Graph

Daily Weather History Graph

Search for Another Location

Airport or City:

Astronomy

Jun. 13, 2019 Rise Set
Actual Time 5:49 AM CDT 9:15 PM CDT
Civil Twilight 5:13 AM CDT 9:51 PM CDT
Nautical Twilight 4:26 AM CDT 10:38 PM CDT
Astronomical Twilight 3:27 AM CDT 11:37 PM CDT
Moon 5:23 PM CDT (6/13) 3:44 AM CDT (6/13)
Length of Visible Light 16h 37m
Length of Day
15h 25m
Waxing Gibbous, 85% of the Moon is Illuminated
Jun 13
Waxing Gibbous
Jun 17
Full
Jun 25
Last Quarter
Jul 2
New
Jul 9
First Quarter

Hourly Weather History & Observations

Time (CDT) Temp. Heat Index Dew Point Humidity Pressure Visibility Wind Dir Wind Speed Gust Speed Precip Events Conditions
12:53 AM 52.0 °F - 48.9 °F 89% 30.07 in 10.0 mi ESE 5.8 mph - N/A   Clear
1:53 AM 51.1 °F - 48.0 °F 89% 30.07 in 10.0 mi East 5.8 mph - N/A   Clear
2:53 AM 51.1 °F - 48.0 °F 89% 30.06 in 10.0 mi SSE 4.6 mph - N/A   Clear
3:53 AM 52.0 °F - 48.0 °F 86% 30.05 in 10.0 mi South 3.5 mph - N/A   Clear
4:53 AM 50.0 °F - 46.9 °F 89% 30.05 in 10.0 mi SSE 4.6 mph - N/A   Clear
5:53 AM 50.0 °F - 48.0 °F 93% 30.05 in 10.0 mi SSE 5.8 mph - N/A   Clear
6:53 AM 52.0 °F - 48.0 °F 86% 30.05 in 10.0 mi SSE 5.8 mph - N/A   Clear
7:53 AM 57.0 °F - 48.0 °F 72% 30.06 in 10.0 mi SE 9.2 mph - N/A   Clear
8:53 AM 62.1 °F - 44.1 °F 52% 30.04 in 10.0 mi SSE 16.1 mph - N/A   Clear
9:53 AM 66.0 °F - 46.0 °F 48% 30.03 in 10.0 mi SSE 15.0 mph - 0.00 in Rain Light Rain
10:53 AM 69.1 °F - 48.9 °F 49% 30.00 in 10.0 mi SSE 16.1 mph - 0.00 in Rain Light Rain
11:53 AM 71.1 °F - 48.9 °F 45% 29.99 in 10.0 mi SE 16.1 mph - 0.00 in Rain Light Rain
12:53 PM 73.9 °F - 51.1 °F 45% 29.97 in 10.0 mi SE 17.3 mph - 0.00 in Rain Light Rain
1:53 PM 75.9 °F - 52.0 °F 43% 29.94 in 10.0 mi SSE 12.7 mph 21.9 mph 0.00 in Rain Light Rain
2:53 PM 79.0 °F - 52.0 °F 39% 29.91 in 10.0 mi South 11.5 mph 21.9 mph 0.00 in   Clear
3:53 PM 82.0 °F - 48.0 °F 30% 29.88 in 10.0 mi SW 8.1 mph 21.9 mph N/A   Clear
4:53 PM 82.0 °F - 50.0 °F 33% 29.86 in 10.0 mi SSW 11.5 mph 18.4 mph N/A   Clear
5:53 PM 82.0 °F 81.2 °F 53.1 °F 37% 29.84 in 10.0 mi South 11.5 mph 19.6 mph N/A   Partly Cloudy
6:53 PM 81.0 °F - 50.0 °F 34% 29.82 in 10.0 mi SSW 10.4 mph - N/A   Clear
7:53 PM 78.1 °F - 52.0 °F 40% 29.81 in 10.0 mi SSE 6.9 mph - N/A   Clear
8:53 PM 72.0 °F - 54.0 °F 53% 29.78 in 10.0 mi SSE 6.9 mph - N/A   Clear
9:53 PM 71.1 °F - 52.0 °F 51% 29.78 in 10.0 mi SSE 8.1 mph - N/A   Clear
10:53 PM 70.0 °F - 53.1 °F 55% 29.78 in 10.0 mi SSE 10.4 mph - N/A   Partly Cloudy
11:53 PM 69.1 °F - 53.1 °F 57% 29.76 in 10.0 mi SSE 11.5 mph - N/A   Clear